Lid_Strength_Index
4 4 3 3 2 2 2 2 3 5 3 2 4 5 6 6 6 7 7 8 8 9 9 9 9 10 10 10 11 11 11 12 14 12 11 10 11 11 10 10 9 10 9
3 3 2 2 1 2 2 2 1 3 4 3 3 4 5 5 6 7 8 8 8 9 9 9 9 8 10 11 11 11 11 12 12 13 12 11 11 11 11 11 10 9 9
2 2 2 2 2 3 3 2 1 1 2 3 3 4 4 5 6 7 7 8 8 8 9 9 9 10 11 11 11 11 12 10 11 12 12 12 12 11 11 11 11 9 8
2 3 2 2 2 2 3 2 1 1 2 2 4 3 4 5 6 6 7 8 8 8 8 9 9 10 11 11 11 12 11 12 12 12 12 12 12 11 12 11 11 9 9
2 2 2 3 1 1 2 2 1 1 2 2 3 4 4 5 6 7 7 9 9 9 9 8 9 9 6 9 10 11 11 12 12 12 12 12 12 12 13 11 10 9 8
2 2 2 2 2 2 1 1 1 2 3 3 4 5 5 5 3 4 7 9 9 9 10 10 9 6 6 5 6 6 9 11 12 13 12 12 12 12 11 10 10 9 10
2 2 3 2 2 2 2 2 2 2 3 4 4 5 6 6 3 3 4 8 9 10 10 10 10 8 7 10 6 6 6 7 7 11 12 12 12 11 10 10 9 8 7
3 3 2 2 2 2 3 3 3 3 4 5 5 5 6 7 3 3 4 9 10 10 10 11 11 11 9 10 11 11 11 11 10 9 10 11 11 9 8 7 6 6 5
3 3 3 2 2 3 3 3 4 4 5 5 5 5 7 7 3 3 6 10 10 11 11 11 11 11 7 6 10 11 11 11 8 7 7 7 5 5 5 6 7 7 8
3 3 2 2 2 3 3 3 4 4 5 5 6 6 6 8 4 3 8 9 10 11 11 10 7 10 6 7 11 12 12 12 11 11 11 9 7 7 5 6 7 8 8
3 2 3 2 2 3 3 3 4 4 6 6 6 6 7 7 5 4 5 9 10 10 11 10 9 6 6 7 8 11 11 10 10 11 11 10 9 7 6 7 7 7 8
3 3 3 3 3 3 3 4 5 5 7 6 6 7 8 6 4 4 5 7 8 10 11 11 10 5 6 7 8 7 7 8 11 12 11 10 9 8 8 7 7 6 5
4 4 4 4 3 3 3 5 5 6 7 7 7 8 9 7 5 4 5 6 6 10 10 9 6 5 6 7 7 7 8 11 12 12 12 10 8 8 8 8 7 6 4
5 5 5 4 4 3 4 5 5 5 7 7 8 9 9 8 7 7 8 7 6 8 6 7 7 8 8 9 9 9 11 12 12 11 11 10 8 9 9 8 8 6 4
5 5 4 4 3 4 5 6 5 5 6 7 7 9 9 9 7 7 8 9 9 8 9 10 11 11 11 12 11 12 12 12 11 11 11 10 9 9 9 8 8 6 5
6 5 5 4 3 5 7 6 4 4 5 5 6 8 8 6 5 5 6 7 7 7 10 11 11 12 12 13 13 13 13 11 11 11 10 10 9 10 10 9 8 8 6
5 5 5 4 4 6 6 7 8 6 5 5 6 6 6 6 6 6 7 7 6 8 11 11 12 12 13 13 13 13 14 12 11 11 8 10 9 10 9 9 9 8 6
5 4 5 4 5 6 6 7 8 8 9 8 6 6 5 6 6 7 7 7 9 10 11 12 12 12 13 13 13 13 13 11 9 10 8 10 9 9 10 10 10 10 7
7 7 6 6 7 7 7 7 8 8 9 9 8 7 6 6 6 7 7 10 11 12 12 12 12 12 13 13 13 13 12 10 9 10 9 10 9 9 10 10 10 10 8
6 6 6 7 8 7 6 9 9 9 9 9 9 9 8 9 10 11 11 11 11 11 12 12 12 12 12 13 13 12 11 10 11 10 10 10 9 9 10 11 10 10 10
7 8 6 6 6 7 8 9 10 10 10 10 10 9 9 10 11 11 11 11 11 11 12 12 12 12 12 13 13 12 10 10 11 11 10 10 10 9 11 11 10 10 10
9 9 7 7 8 8 9 10 10 10 10 11 10 10 10 11 11 11 11 12 11 11 12 12 12 11 13 12 12 11 11 10 10 11 10 10 10 10 10 11 11 10 10
10 10 9 8 9 9 10 10 10 11 11 11 11 11 11 11 12 12 12 12 11 12 11 12 11 12 11 11 10 11 10 10 10 10 10 11 10 9 9 11 11 11 10
10 10 10 10 9 10 10 11 11 11 11 11 11 11 12 12 12 12 11 11 11 11 11 11 11 12 11 11 10 10 9 9 10 10 10 11 11 9 9 9 10 11 11
9 9 10 11 11 11 11 11 12 12 11 11 12 12 12 11 11 11 11 11 11 11 11 11 11 11 10 10 10 9 9 9 10 9 9 10 9 9 9 9 9 9 11
10 11 11 11 11 12 12 13 13 13 13 12 13 12 12 12 12 12 11 11 11 12 11 11 10 10 9 9 8 9 9 9 9 9 9 9 9 9 9 9 9 9 9